This is the latest recevied weather packets stored in our database for station/object NO9B. If no packets are shown the sender has not sent any weather packets the latest 10 day(s).
| Time | Temp. | Humidity | Pressure | Rain* | Wind** | Luminosity | Snow |
|---|---|---|---|---|---|---|---|
| 1788369944 | 30.56° C | 69% | 1015.2 hPa | 0 mm | - | 114 W/m² | - |
| 1788369639 | 30.56° C | 69% | 1015.2 hPa | 0 mm | - | 118 W/m² | - |
| 1788369335 | 31.11° C | 66% | 1015.1 hPa | 0 mm | - | 242 W/m² | - |
| 1788369032 | 30.56° C | 68% | 1015.3 hPa | 0 mm | - | 188 W/m² | - |
| 1788368731 | 30.56° C | 66% | 1015.2 hPa | 0 mm | - | 564 W/m² | - |
| 1788368428 | 30.56° C | 70% | 1015.4 hPa | 0 mm | - | 518 W/m² | - |
| 1788368122 | 30° C | 67% | 1015.1 hPa | 0 mm | - | 497 W/m² | - |
| 1788367821 | 30° C | 68% | 1015.4 hPa | 0 mm | - | 429 W/m² | - |
| 1788367517 | 29.44° C | 71% | 1015.5 hPa | 0 mm | - | 479 W/m² | - |
| 1788367215 | 29.44° C | 69% | 1015.4 hPa | 0 mm | - | 501 W/m² | - |
| 1788366911 | 29.44° C | 70% | 1015.5 hPa | 0 mm | - | 439 W/m² | - |
| 1788366610 | 28.89° C | 73% | 1015.4 hPa | 0 mm | - | 98 W/m² | - |
| 1788366309 | 28.89° C | 71% | 1015.6 hPa | 0 mm | - | 72 W/m² | - |
| 1788366005 | 28.89° C | 71% | 1015.5 hPa | 0 mm | - | 136 W/m² | - |
| 1788365699 | 28.89° C | 72% | 1015.1 hPa | 0 mm | - | 98 W/m² | - |
| 1788365395 | 28.89° C | 71% | 1015 hPa | 0 mm | - | 119 W/m² | - |
| 1788365091 | 28.33° C | 71% | 1014.6 hPa | 0 mm | - | 76 W/m² | - |
| 1788364788 | 28.89° C | 70% | 1014.8 hPa | 0 mm | - | 89 W/m² | - |
| 1788364484 | 28.33° C | 72% | 1014.9 hPa | 0 mm | - | 106 W/m² | - |
| 1788364178 | 28.33° C | 72% | 1015.1 hPa | 0 mm | - | 83 W/m² | - |
| 1788363874 | 27.78° C | 74% | 1014.9 hPa | 0 mm | - | 69 W/m² | - |
| 1788363573 | 27.78° C | 75% | 1015.2 hPa | 0 mm | - | 63 W/m² | - |
| 1788363272 | 27.22° C | 75% | 1015.4 hPa | 0 mm | - | 65 W/m² | - |
| 1788362968 | 27.22° C | 75% | 1015.2 hPa | 0 mm | - | 66 W/m² | - |
| 1788362664 | 27.22° C | 75% | 1015.4 hPa | 0 mm | - | 82 W/m² | - |
* Rain latest hour (hover to see other rain measurements)
** Current wind speed in m/s (hover to see current wind gust speed)